Houston, TX

10:46 PM CDT on August 30, 2016 (GMT -0500)
Hobby

Weather History for KHOU - August, 2013

Change the Weather History Date:

Sunday, August 25, 2013

  Actual Average Record
Temperature  
Mean Temperature 83 °F 84 °F  
Max Temperature 89 °F 94 °F 103 °F (1924)
Min Temperature 77 °F 75 °F 55 °F (1891)
Cooling Degree Days 18 19  
Month to date cooling degree days 522 497  
Year to date cooling degree days 2279 2270  
Since 1 June cooling degree days 1709 1618  
Growing Degree Days 30 (Base 50)    
Moisture  
Dew Point 74 °F    
Average Humidity 74    
Maximum Humidity 88    
Minimum Humidity 59    
Precipitation  
Precipitation 0.00 in 0.13 in 1.90 in (1931)
Month to date precipitation 2.61 2.88  
Year to date precipitation 20.48 30.99  
Sea Level Pressure  
Sea Level Pressure 30.05 in    
Wind  
Wind Speed 11 mph (ENE)    
Max Wind Speed 21 mph    
Max Gust Speed 25 mph    
Visibility 10 miles    
Events Rain    
T = Trace of Precipitation, MM = Missing Value Source: NWS Daily Summary

Daily Weather History Graph

Daily Weather History Graph

Search for Another Location

Airport or City:

Trip Planner

Search our weather history database for the weather conditions in past years. The results will help you decide how hot, cold, wet, or windy it might be!

Date:

Astronomy

Aug. 25, 2013 Rise Set
Actual Time 6:54 AM CDT 7:50 PM CDT
Civil Twilight 6:30 AM CDT 8:15 PM CDT
Nautical Twilight 6:01 AM CDT 8:44 PM CDT
Astronomical Twilight 5:31 AM CDT 9:14 PM CDT
Moon 10:51 PM CDT (8/25) 11:30 AM CDT (8/25)
Length of Visible Light 13h 45m
Length of Day
12h 56m
Waning Gibbous, 75% of the Moon is Illuminated
Aug 25
Waning Gibbous
Aug 28
Last Quarter
Sep 5
New
Sep 12
First Quarter
Sep 19
Full

Hourly Weather History & Observations

Time (CDT) Temp. Heat Index Dew Point Humidity Pressure Visibility Wind Dir Wind Speed Gust Speed Precip Events Conditions
12:53 AM 81.0 °F 85.8 °F 73.0 °F 77% 30.02 in 10.0 mi ENE 10.4 mph - N/A   Mostly Cloudy
1:53 AM 81.0 °F 85.8 °F 73.0 °F 77% 30.01 in 10.0 mi ENE 10.4 mph - N/A   Overcast
2:53 AM 80.1 °F 84.5 °F 73.9 °F 81% 30.01 in 10.0 mi NE 12.7 mph - N/A   Overcast
3:53 AM 79.0 °F - 73.0 °F 82% 30.01 in 10.0 mi NNE 10.4 mph - N/A   Overcast
4:53 AM 78.1 °F - 73.0 °F 84% 30.02 in 10.0 mi NE 11.5 mph - N/A   Overcast
5:20 AM 78.8 °F - 73.4 °F 83% 30.01 in 10.0 mi NE 10.4 mph - N/A   Overcast
5:53 AM 78.1 °F - 73.0 °F 84% 30.03 in 10.0 mi NE 12.7 mph - N/A   Overcast
6:25 AM 78.8 °F - 73.4 °F 83% 30.02 in 10.0 mi NE 10.4 mph - N/A   Mostly Cloudy
6:53 AM 77.0 °F - 73.0 °F 88% 30.03 in 10.0 mi NE 11.5 mph - N/A   Mostly Cloudy
6:58 AM 77.0 °F - 73.4 °F 89% 30.02 in 10.0 mi NE 10.4 mph - N/A   Mostly Cloudy
7:26 AM 77.0 °F - 73.4 °F 89% 30.01 in 10.0 mi NE 10.4 mph - N/A   Overcast
7:53 AM 78.1 °F - 73.0 °F 84% 30.04 in 10.0 mi NE 11.5 mph - N/A   Overcast
8:53 AM 80.1 °F 84.5 °F 73.9 °F 81% 30.05 in 10.0 mi NE 11.5 mph - N/A   Overcast
9:53 AM 80.1 °F 84.2 °F 73.0 °F 79% 30.06 in 10.0 mi ENE 11.5 mph - N/A   Overcast
10:31 AM 80.6 °F 85.4 °F 73.4 °F 79% 30.05 in 10.0 mi ENE 13.8 mph - N/A   Overcast
10:53 AM 81.0 °F 86.2 °F 73.9 °F 79% 30.07 in 10.0 mi ENE 13.8 mph - N/A   Overcast
11:53 AM 82.9 °F 88.8 °F 73.0 °F 72% 30.08 in 10.0 mi East 10.4 mph 19.6 mph N/A   Overcast
12:53 PM 84.9 °F 92.1 °F 73.9 °F 69% 30.07 in 10.0 mi East 11.5 mph - N/A   Overcast
1:44 PM 82.4 °F 89.5 °F 75.2 °F 79% 30.06 in 10.0 mi ENE 9.2 mph - 0.02 in   Overcast
1:53 PM 82.0 °F 88.6 °F 75.0 °F 79% 30.07 in 10.0 mi ENE 16.1 mph - 0.02 in   Overcast
2:53 PM 84.0 °F 92.6 °F 75.9 °F 76% 30.06 in 10.0 mi East 10.4 mph 18.4 mph N/A   Overcast
3:53 PM 84.0 °F 91.2 °F 73.9 °F 72% 30.05 in 10.0 mi East 8.1 mph 17.3 mph N/A   Mostly Cloudy
4:53 PM 84.9 °F 92.1 °F 73.9 °F 69% 30.04 in 10.0 mi East 8.1 mph - N/A   Mostly Cloudy
5:53 PM 84.0 °F 90.2 °F 73.0 °F 69% 30.05 in 10.0 mi East 13.8 mph 21.9 mph N/A   Mostly Cloudy
6:53 PM 82.9 °F 88.8 °F 73.0 °F 72% 30.04 in 10.0 mi ENE 15.0 mph - N/A   Mostly Cloudy
7:38 PM 78.8 °F - 73.4 °F 83% 30.04 in 7.0 mi East 11.5 mph 21.9 mph 0.07 in Rain Light Rain
7:53 PM 78.1 °F - 73.9 °F 87% 30.06 in 10.0 mi East 10.4 mph - 0.07 in   Mostly Cloudy
8:53 PM 78.1 °F - 75.0 °F 90% 30.08 in 7.0 mi East 5.8 mph - 0.01 in   Mostly Cloudy
9:51 PM 78.8 °F - 75.2 °F 89% 30.07 in 9.0 mi ESE 6.9 mph - 0.01 in   Mostly Cloudy
9:53 PM 78.1 °F - 75.0 °F 90% 30.09 in 9.0 mi ESE 6.9 mph - 0.01 in   Mostly Cloudy
10:20 PM 78.8 °F - 75.2 °F 89% 30.08 in 10.0 mi East 4.6 mph - N/A   Mostly Cloudy
10:53 PM 78.1 °F - 73.9 °F 87% 30.09 in 10.0 mi ENE 5.8 mph - N/A   Scattered Clouds
11:53 PM 77.0 °F - 73.9 °F 90% 30.09 in 10.0 mi East 3.5 mph - N/A   Scattered Clouds